Weather History for Watonga, OK

Change the Weather History Date:

Wednesday, December 25, 2013

  Actual Average Record
Temperature  
Mean Temperature 36 °F -  
Max Temperature 45 °F 43 °F 67 °F (1960)
Min Temperature 28 °F 23 °F -5 °F (1983)
Degree Days  
Heating Degree Days 28    
Moisture  
Dew Point 32 °F    
Average Humidity 95    
Maximum Humidity 100    
Minimum Humidity 71    
Precipitation  
Precipitation 0.00 in - - ()
Sea Level Pressure  
Sea Level Pressure 30.36 in    
Wind  
Wind Speed 4 mph (NNW)    
Max Wind Speed 9 mph    
Max Gust Speed -    
Visibility 7 miles    
Events Fog    
Averages and records for this station are not official NWS values.
T = Trace of Precipitation, MM = Missing Value Source: NWS Daily Summary

Daily Weather History Graph

Daily Weather History Graph

Search for Another Location

Airport:

Trip Planner

Search our weather history database for the weather conditions in past years. The results will help you decide how hot, cold, wet, or windy it might be!

Date:

Astronomy

Dec. 25, 2013 Rise Set
Actual Time 7:42 AM CST 5:26 PM CST
Civil Twilight 7:13 AM CST 5:54 PM CST
Nautical Twilight 6:41 AM CST 6:26 PM CST
Astronomical Twilight 6:10 AM CST 6:57 PM CST
Moon 12:21 AM CST (12/25) 12:20 PM CST (12/25)
Length of Visible Light 10h 41m
Length of Day
9h 43m
Waning Gibbous, 48% of the Moon is Illuminated
Dec 25
Waning Gibbous
Jan 1
New
Jan 7
First Quarter
Jan 15
Full
Jan 23
Last Quarter

Hourly Weather History & Observations

Time (CST) Temp. Windchill Dew Point Humidity Pressure Visibility Wind Dir Wind Speed Gust Speed Precip Events Conditions
12:15 AM 30.9 °F 26.2 °F 30.9 °F 100% 30.26 in 0.2 mi North 4.6 mph - N/A Fog Light Freezing Fog
12:35 AM 30.7 °F - 30.7 °F 100% 30.26 in 0.2 mi Calm Calm - N/A Fog Light Freezing Fog
12:55 AM 30.7 °F 26.0 °F 30.7 °F 100% 30.27 in 0.2 mi North 4.6 mph - N/A Fog Light Freezing Fog
1:15 AM 30.9 °F 26.2 °F 30.9 °F 100% 30.28 in 0.2 mi NNW 4.6 mph - N/A Fog Light Freezing Fog
1:35 AM 30.9 °F 27.5 °F 30.9 °F 100% 30.27 in 0.2 mi North 3.5 mph - N/A Fog Light Freezing Fog
1:55 AM 30.9 °F 27.5 °F 30.9 °F 100% 30.27 in 0.2 mi North 3.5 mph - N/A Fog Light Freezing Fog
2:15 AM 30.9 °F 26.2 °F 30.9 °F 100% 30.27 in 0.2 mi North 4.6 mph - N/A Fog Light Freezing Fog
2:35 AM 31.1 °F 26.4 °F 31.1 °F 100% 30.27 in 0.5 mi North 4.6 mph - N/A Fog Light Freezing Fog
2:55 AM 31.3 °F 26.6 °F 31.3 °F 100% 30.26 in 0.8 mi NNE 4.6 mph - N/A   Overcast
3:15 AM 31.1 °F 24.5 °F 31.1 °F 100% 30.27 in 0.8 mi North 6.9 mph - N/A   Overcast
3:35 AM 31.1 °F 26.4 °F 31.1 °F 100% 30.28 in 0.5 mi North 4.6 mph - N/A Fog Light Freezing Fog
3:55 AM 31.1 °F 27.7 °F 31.1 °F 100% 30.28 in 0.2 mi North 3.5 mph - N/A Fog Light Freezing Fog
4:15 AM 30.7 °F 24.9 °F 30.7 °F 100% 30.29 in 0.8 mi North 5.8 mph - N/A   Overcast
4:35 AM 30.2 °F 25.4 °F 30.2 °F 100% 30.30 in 0.8 mi North 4.6 mph - N/A   Overcast
4:55 AM 30.2 °F 26.7 °F 30.2 °F 100% 30.29 in 0.5 mi NNE 3.5 mph - N/A Fog Light Freezing Fog
5:15 AM 30.0 °F 24.1 °F 30.0 °F 100% 30.30 in 0.5 mi NNE 5.8 mph - N/A Fog Light Freezing Fog
5:35 AM 30.0 °F 25.2 °F 30.0 °F 100% 30.31 in 0.2 mi North 4.6 mph - N/A Fog Light Freezing Fog
5:55 AM 29.8 °F - 29.8 °F 100% 30.31 in 0.5 mi Calm Calm - N/A Fog Light Freezing Fog
6:15 AM 29.3 °F 25.6 °F 29.3 °F 100% 30.32 in 0.5 mi North 3.5 mph - N/A Fog Light Freezing Fog
6:35 AM 28.9 °F 23.9 °F 28.9 °F 100% 30.33 in 0.5 mi North 4.6 mph - N/A Fog Light Freezing Fog
6:55 AM 28.4 °F 23.3 °F 28.4 °F 100% 30.34 in 0.5 mi NNW 4.6 mph - N/A Fog Light Freezing Fog
7:15 AM 28.2 °F 23.1 °F 28.2 °F 100% 30.35 in 2.0 mi NNW 4.6 mph - N/A   Overcast
7:35 AM 28.0 °F 21.7 °F 28.0 °F 100% 30.36 in 4.0 mi NNW 5.8 mph - N/A   Mostly Cloudy
7:55 AM 28.0 °F 24.2 °F 28.0 °F 100% 30.36 in 4.0 mi NNW 3.5 mph - N/A   Mostly Cloudy
8:15 AM 28.2 °F 23.1 °F 28.2 °F 100% 30.37 in 4.0 mi NNW 4.6 mph - N/A   Scattered Clouds
8:35 AM 29.1 °F 24.1 °F 29.1 °F 100% 30.37 in 4.0 mi NNW 4.6 mph - N/A   Clear
8:55 AM 30.0 °F 26.5 °F 30.0 °F 100% 30.38 in 4.0 mi North 3.5 mph - N/A   Clear
9:15 AM 31.5 °F 25.8 °F 31.5 °F 100% 30.39 in 7.0 mi North 5.8 mph - N/A   Scattered Clouds
9:35 AM 32.0 °F 25.6 °F 32.0 °F 100% 30.40 in 7.0 mi North 6.9 mph - N/A   Scattered Clouds
9:55 AM 32.2 °F 25.8 °F 32.2 °F 100% 30.41 in 10.0 mi North 6.9 mph - N/A   Clear
10:15 AM 32.9 °F 27.5 °F 32.9 °F 100% 30.41 in 10.0 mi North 5.8 mph - N/A   Scattered Clouds
10:35 AM 32.9 °F 28.5 °F 32.9 °F 100% 30.42 in 10.0 mi NNW 4.6 mph - N/A   Scattered Clouds
10:55 AM 33.4 °F 29.1 °F 33.4 °F 100% 30.42 in 10.0 mi NNW 4.6 mph - N/A   Clear
11:15 AM 34.0 °F 29.8 °F 34.0 °F 100% 30.42 in 10.0 mi North 4.6 mph - N/A   Clear
11:35 AM 34.7 °F 31.8 °F 34.7 °F 100% 30.42 in 10.0 mi NNW 3.5 mph - N/A   Clear
11:55 AM 35.2 °F 29.5 °F 34.9 °F 99% 30.42 in 10.0 mi NNW 6.9 mph - N/A   Clear
12:15 PM 36.5 °F 31.0 °F 34.9 °F 94% 30.40 in 10.0 mi NNW 6.9 mph - N/A   Clear
12:35 PM 37.2 °F 32.6 °F 35.8 °F 95% 30.40 in 10.0 mi NNW 5.8 mph - N/A   Clear
12:55 PM 38.3 °F 32.5 °F 36.5 °F 93% 30.39 in 10.0 mi NW 8.1 mph - N/A   Clear
1:15 PM 39.2 °F 34.2 °F 35.8 °F 88% 30.39 in 10.0 mi NNW 6.9 mph - N/A   Clear
1:35 PM 40.3 °F 34.4 °F 35.8 °F 84% 30.38 in 10.0 mi NNW 9.2 mph - N/A   Clear
1:55 PM 41.0 °F 35.2 °F 35.6 °F 81% 30.38 in 10.0 mi NNW 9.2 mph - N/A   Clear
2:15 PM 41.9 °F 36.3 °F 36.0 °F 79% 30.37 in 10.0 mi NNW 9.2 mph - N/A   Clear
2:35 PM 43.0 °F 38.2 °F 36.3 °F 77% 30.37 in 10.0 mi NNW 8.1 mph - N/A   Clear
2:55 PM 43.7 °F 39.7 °F 36.0 °F 74% 30.37 in 10.0 mi NW 6.9 mph - N/A   Clear
3:15 PM 44.6 °F 43.1 °F 35.8 °F 71% 30.36 in 10.0 mi NW 3.5 mph - N/A   Clear
3:35 PM 44.6 °F 43.1 °F 35.8 °F 71% 30.36 in 10.0 mi WNW 3.5 mph - N/A   Clear
3:55 PM 45.1 °F 42.0 °F 36.1 °F 71% 30.37 in 10.0 mi NNW 5.8 mph - N/A   Clear
4:15 PM 45.3 °F 43.0 °F 36.3 °F 71% 30.37 in 10.0 mi NNW 4.6 mph - N/A   Clear
4:35 PM 44.6 °F 42.2 °F 36.5 °F 73% 30.38 in 10.0 mi North 4.6 mph - N/A   Clear
4:55 PM 43.2 °F 41.5 °F 37.0 °F 79% 30.38 in 10.0 mi NE 3.5 mph - N/A   Clear
5:15 PM 41.4 °F - 36.7 °F 83% 30.39 in 10.0 mi Calm Calm - N/A   Clear
5:35 PM 37.9 °F - 35.2 °F 90% 30.39 in 10.0 mi Calm Calm - N/A   Clear
5:55 PM 36.3 °F - 36.3 °F 100% 30.39 in 10.0 mi Calm Calm - N/A   Clear
6:15 PM 35.6 °F - 35.2 °F 99% 30.39 in 10.0 mi Calm Calm - N/A   Clear
6:35 PM 35.4 °F 32.6 °F 34.9 °F 98% 30.40 in 10.0 mi West 3.5 mph - N/A   Clear
6:55 PM 34.0 °F - 32.5 °F 94% 30.40 in 10.0 mi Calm Calm - N/A   Clear
7:15 PM 33.4 °F - 33.3 °F 99% 30.40 in 10.0 mi Calm Calm - N/A   Clear
7:35 PM 32.2 °F - 32.2 °F 100% 30.40 in 10.0 mi Calm Calm - N/A   Clear
7:55 PM 32.0 °F - 32.0 °F 100% 30.41 in 10.0 mi Calm Calm - N/A   Clear
8:15 PM 32.0 °F 28.7 °F 32.0 °F 100% 30.41 in 10.0 mi WNW 3.5 mph - N/A   Clear
8:35 PM 32.0 °F 28.7 °F 32.0 °F 100% 30.41 in 10.0 mi WNW 3.5 mph - N/A   Clear
8:55 PM 30.9 °F 27.5 °F 30.9 °F 100% 30.42 in 10.0 mi WNW 3.5 mph - N/A   Clear
9:15 PM 31.8 °F 28.5 °F 31.5 °F 99% 30.42 in 10.0 mi WNW 3.5 mph - N/A   Clear
9:35 PM 30.2 °F 26.7 °F 29.7 °F 98% 30.41 in 10.0 mi WNW 3.5 mph - N/A   Clear
9:55 PM 28.2 °F - 28.2 °F 100% 30.42 in 10.0 mi Calm Calm - N/A   Clear
10:15 PM 29.8 °F 26.3 °F 29.7 °F 99% 30.42 in 10.0 mi WNW 3.5 mph - N/A   Clear
10:35 PM 28.4 °F - 28.4 °F 100% 30.42 in 10.0 mi Calm Calm - N/A   Clear
10:55 PM 29.1 °F - 29.1 °F 100% 30.42 in 10.0 mi Calm Calm - N/A   Clear
11:15 PM 29.1 °F - 28.9 °F 99% 30.42 in 10.0 mi Calm Calm - N/A   Clear
11:35 PM 29.3 °F - 29.3 °F 100% 30.42 in 10.0 mi Calm Calm - N/A   Clear
11:55 PM 28.8 °F - 28.8 °F 100% 30.42 in 10.0 mi Calm Calm - N/A   Clear